Weather in Yershovskiy

Russia / Chelyabinsk Oblast     52°29′08″N   59°08′13″E
temp.,
°C
wind,
m/s
gust,
m/s
humid.,
%
clouds,
%
prec.,
mm/h
press.,
hPa
HPBL,
m
8 may, sat
sat823:00+13ene224395 0.0 101914
02:00+12e2248100 0.0 101819
05:00+11ene2351100 0.0 101838
08:00+14ese2451100 0.0 1018253
11:00+16ssw2246100 0.0 1017744
14:00+17sw1142100 0.0 10161195
17:00+17sse1238100 0.0 10161518
20:00+16sse1148100 0.0 101513
9 may, sun
sun923:00+13w4671100 0.1 1016146
02:00+12ssw1168100 0.0 101511
05:00+11w0069100 0.0 101610
08:00+15nne255252 0.0 1016448
11:00+18nnw563452 0.0 10152265
14:00+19ne453474 0.0 10152113
17:00+21nne462752 0.0 10142789
20:00+18nne344074 0.0 101577
10 may, mon
mon1023:00+14nne49505 0.0 1016223
02:00+11n36750 0.0 1018134
05:00+9n38791 0.0 1019189
08:00+12nne687342 0.0 1020623
11:00+12ne5778100 0.0 1021604
14:00+17ne355441 0.0 10211402
17:00+17nne455185 0.1 1021565
20:00+16ene1259100 0.0 102226
11 may, tue
tue1123:00+15wnw016069 0.0 102311
02:00+12nnw227010 0.0 102414
05:00+10n2277100 0.0 102511
08:00+14ne236264 0.0 1026223
11:00+19ene233684 0.0 10261065
14:00+21nne3330100 0.0 10261959
17:00+22n2329100 0.0 10252334
20:00+19sse013973 0.0 102512
12 may, wed
wed1223:00+18nnw114764 0.0 102617
02:00+14n37677 0.0 1027159
05:00+11nne39695 0.0 1028245
08:00+13ne586110 0.0 1029481
11:00+17ne56395 0.0 10291200
14:00+19ne5530100 0.0 10281576
17:00+20nne44307 0.0 10271695
20:00+17ne34425 0.0 102773